Time,TemperatureF,DewpointF,PressureIn,WindDirection,WindDirectionDegrees,WindSpeedMPH,WindSpeedGustMPH,Humidity,HourlyPrecipIn,Conditions,Clouds,dailyrainin,SolarRadiationWatts/m^2,SoftwareType,DateUTC
2013-07-02 00:04:00,61.1,60.0,30.06,North,360,0.0,1.0,96,0.00,CLR,CLR,0.00,0.0,WeatherDisplay:10.37,2013-07-02 04:04:00,
2013-07-02 00:09:00,61.0,59.9,30.06,North,360,0.0,0.0,96,0.00,CLR,CLR,0.00,0.0,WeatherDisplay:10.37,2013-07-02 04:09:00,
2013-07-02 00:14:00,60.9,59.8,30.06,North,360,0.0,0.0,96,0.00,CLR,CLR,0.00,0.0,WeatherDisplay:10.37,2013-07-02 04:14:00,
2013-07-02 00:19:00,61.0,59.9,30.06,North,360,0.0,0.0,96,0.00,CLR,CLR,0.00,0.0,WeatherDisplay:10.37,2013-07-02 04:19:00,
2013-07-02 00:24:00,61.0,59.8,30.06,North,360,0.0,1.0,96,0.00,CLR,CLR,0.00,0.0,WeatherDisplay:10.37,2013-07-02 04:24:00,
2013-07-02 00:29:00,60.9,59.8,30.06,North,360,0.0,0.0,96,0.00,CLR,CLR,0.00,0.0,WeatherDisplay:10.37,2013-07-02 04:29:00,
2013-07-02 00:34:00,60.9,59.8,30.06,North,360,0.0,1.0,96,0.00,CLR,CLR,0.00,0.0,WeatherDisplay:10.37,2013-07-02 04:34:00,
2013-07-02 00:39:00,60.9,59.8,30.06,North,360,0.0,0.0,96,0.00,CLR,CLR,0.00,0.0,WeatherDisplay:10.37,2013-07-02 04:39:00,
2013-07-02 00:49:00,61.0,59.8,30.06,North,360,0.0,1.0,96,0.00,CLR,CLR,0.00,0.0,WeatherDisplay:10.37,2013-07-02 04:49:00,
2013-07-02 00:54:00,61.0,59.8,30.06,North,360,0.0,1.0,96,0.00,CLR,CLR,0.00,0.0,WeatherDisplay:10.37,2013-07-02 04:54:00,
2013-07-02 00:59:00,60.9,59.8,30.06,North,360,0.0,1.0,96,0.00,CLR,CLR,0.00,0.0,WeatherDisplay:10.37,2013-07-02 04:59:00,
2013-07-02 01:04:00,60.9,59.8,30.07,North,360,0.0,0.0,96,0.00,CLR,CLR,0.00,0.0,WeatherDisplay:10.37,2013-07-02 05:04:00,
2013-07-02 01:09:00,60.9,59.8,30.07,North,360,0.0,0.0,96,0.00,CLR,CLR,0.00,0.0,WeatherDisplay:10.37,2013-07-02 05:09:00,
2013-07-02 01:14:00,60.9,59.8,30.07,North,360,0.0,0.0,96,0.00,CLR,CLR,0.00,0.0,WeatherDisplay:10.37,2013-07-02 05:14:00,
2013-07-02 01:19:00,60.9,59.8,30.07,North,360,0.0,0.0,96,0.00,CLR,CLR,0.00,0.0,WeatherDisplay:10.37,2013-07-02 05:19:00,
2013-07-02 01:24:00,60.9,59.8,30.07,North,360,0.0,0.0,96,0.00,CLR,CLR,0.00,0.0,WeatherDisplay:10.37,2013-07-02 05:24:00,
2013-07-02 01:29:00,60.9,59.8,30.07,North,360,0.0,0.0,96,0.00,CLR,CLR,0.00,0.0,WeatherDisplay:10.37,2013-07-02 05:29:00,
2013-07-02 01:39:00,60.8,59.7,30.07,North,360,0.0,0.0,96,0.00,CLR,CLR,0.00,0.0,WeatherDisplay:10.37,2013-07-02 05:39:00,
2013-07-02 01:49:00,60.9,60.0,30.07,North,360,0.0,1.0,97,0.00,CLR,CLR,0.00,0.0,WeatherDisplay:10.37,2013-07-02 05:49:00,
2013-07-02 01:54:00,60.9,60.0,30.07,North,360,0.0,0.0,97,0.00,CLR,CLR,0.00,0.0,WeatherDisplay:10.37,2013-07-02 05:54:00,
2013-07-02 01:59:00,61.0,60.1,30.07,North,360,0.0,1.0,97,0.00,CLR,CLR,0.00,0.0,WeatherDisplay:10.37,2013-07-02 05:59:00,
2013-07-02 02:04:00,61.0,60.1,30.06,North,360,1.0,3.0,97,0.00,CLR,CLR,0.00,0.0,WeatherDisplay:10.37,2013-07-02 06:04:00,
2013-07-02 02:09:00,61.0,60.1,30.06,North,360,0.0,4.0,97,0.00,CLR,CLR,0.00,0.0,WeatherDisplay:10.37,2013-07-02 06:09:00,
2013-07-02 02:14:00,61.0,60.1,30.06,North,360,0.0,1.0,97,0.00,CLR,CLR,0.00,0.0,WeatherDisplay:10.37,2013-07-02 06:14:00,
2013-07-02 02:19:00,61.0,60.2,30.06,North,360,0.0,0.0,97,0.00,CLR,CLR,0.00,0.0,WeatherDisplay:10.37,2013-07-02 06:19:00,
2013-07-02 02:24:00,61.1,60.2,30.06,North,360,0.0,0.0,97,0.00,CLR,CLR,0.00,0.0,WeatherDisplay:10.37,2013-07-02 06:24:00,
2013-07-02 02:29:00,61.2,60.3,30.06,North,360,0.0,0.0,97,0.00,CLR,CLR,0.00,0.0,WeatherDisplay:10.37,2013-07-02 06:29:00,
2013-07-02 02:34:00,61.3,60.4,30.06,North,360,0.0,0.0,97,0.00,CLR,CLR,0.00,0.0,WeatherDisplay:10.37,2013-07-02 06:34:00,
2013-07-02 02:39:00,61.3,60.4,30.06,North,360,0.0,0.0,97,0.00,CLR,CLR,0.00,0.0,WeatherDisplay:10.37,2013-07-02 06:39:00,
2013-07-02 02:44:00,61.2,60.4,30.06,North,360,0.0,1.0,97,0.00,CLR,CLR,0.00,0.0,WeatherDisplay:10.37,2013-07-02 06:44:00,
2013-07-02 02:54:00,61.3,60.4,30.06,North,360,0.0,1.0,97,0.00,CLR,CLR,0.00,0.0,WeatherDisplay:10.37,2013-07-02 06:54:00,
2013-07-02 02:59:00,61.3,60.4,30.06,North,360,0.0,1.0,97,0.00,CLR,CLR,0.00,0.0,WeatherDisplay:10.37,2013-07-02 06:59:00,
2013-07-02 03:09:00,61.5,60.6,30.06,North,360,0.0,0.0,97,0.01,RA,RA,0.01,0.0,WeatherDisplay:10.37,2013-07-02 07:09:00,
2013-07-02 03:19:00,61.6,60.7,30.06,North,360,0.0,0.0,97,0.01,RA,RA,0.02,0.0,WeatherDisplay:10.37,2013-07-02 07:19:00,
2013-07-02 03:29:00,61.6,60.7,30.06,North,360,0.0,0.0,97,0.01,RA,RA,0.04,0.0,WeatherDisplay:10.37,2013-07-02 07:29:00,
2013-07-02 03:34:00,61.6,60.7,30.06,North,360,0.0,1.0,97,0.00,RA,RA,0.04,0.0,WeatherDisplay:10.37,2013-07-02 07:34:00,
2013-07-02 03:44:00,61.8,60.9,30.05,North,360,0.0,3.0,97,0.04,RA,RA,0.11,0.0,WeatherDisplay:10.37,2013-07-02 07:44:00,
2013-07-02 03:49:00,61.8,60.9,30.06,North,360,1.0,3.0,97,0.00,RA,RA,0.11,0.0,WeatherDisplay:10.37,2013-07-02 07:49:00,
2013-07-02 03:59:00,61.8,60.9,30.06,North,360,0.0,1.0,97,0.00,RA,RA,0.11,0.0,WeatherDisplay:10.37,2013-07-02 07:59:00,
2013-07-02 04:09:00,61.8,60.9,30.06,North,360,0.0,0.0,97,0.00,RA,RA,0.11,0.0,WeatherDisplay:10.37,2013-07-02 08:09:00,
2013-07-02 04:14:00,61.9,61.0,30.06,North,360,0.0,1.0,97,0.00,RA,RA,0.11,0.0,WeatherDisplay:10.37,2013-07-02 08:14:00,
2013-07-02 04:19:00,62.0,61.1,30.06,North,360,0.0,0.0,97,0.00,RA,RA,0.11,0.0,WeatherDisplay:10.37,2013-07-02 08:19:00,
2013-07-02 04:29:00,62.1,61.2,30.06,North,360,0.0,1.0,97,0.00,RA,RA,0.11,0.0,WeatherDisplay:10.37,2013-07-02 08:29:00,
2013-07-02 04:34:00,62.1,61.2,30.06,North,360,1.0,3.0,97,0.00,RA,RA,0.11,0.0,WeatherDisplay:10.37,2013-07-02 08:34:00,
2013-07-02 04:44:00,62.1,61.2,30.06,North,360,0.0,0.0,97,0.01,RA,RA,0.12,0.0,WeatherDisplay:10.37,2013-07-02 08:44:00,
2013-07-02 04:49:00,62.1,61.2,30.06,North,360,0.0,0.0,97,0.00,RA,RA,0.12,0.0,WeatherDisplay:10.37,2013-07-02 08:49:00,
2013-07-02 04:54:00,62.1,61.2,30.06,North,360,2.0,3.0,97,0.01,RA,RA,0.13,0.0,WeatherDisplay:10.37,2013-07-02 08:54:00,
2013-07-02 04:59:00,62.0,61.1,30.05,North,360,2.0,3.0,97,0.02,RA,RA,0.15,0.0,WeatherDisplay:10.37,2013-07-02 08:59:00,
2013-07-02 05:04:00,62.1,61.2,30.06,North,360,1.0,4.0,97,0.10,RA,RA,0.25,0.0,WeatherDisplay:10.37,2013-07-02 09:04:00,
2013-07-02 05:14:00,62.4,61.5,30.07,North,360,12.0,16.0,97,0.00,RA,RA,0.37,0.0,WeatherDisplay:10.37,2013-07-02 09:14:00,
2013-07-02 05:24:00,62.5,61.7,30.07,North,360,3.0,12.0,97,0.00,RA,RA,0.37,0.0,WeatherDisplay:10.37,2013-07-02 09:24:00,
2013-07-02 05:29:00,62.5,61.7,30.07,North,360,5.0,10.0,97,0.00,RA,RA,0.37,0.0,WeatherDisplay:10.37,2013-07-02 09:29:00,
2013-07-02 05:34:00,62.5,61.6,30.07,North,360,6.0,14.0,97,0.00,RA,RA,0.37,0.0,WeatherDisplay:10.37,2013-07-02 09:34:00,
2013-07-02 05:44:00,62.5,61.7,30.07,North,360,1.0,9.0,97,0.00,RA,RA,0.37,0.0,WeatherDisplay:10.37,2013-07-02 09:44:00,
2013-07-02 05:49:00,62.6,61.7,30.07,North,360,6.0,10.0,97,0.00,RA,RA,0.37,0.0,WeatherDisplay:10.37,2013-07-02 09:49:00,
2013-07-02 05:54:00,62.6,61.7,30.07,North,360,3.0,10.0,97,0.00,RA,RA,0.37,0.0,WeatherDisplay:10.37,2013-07-02 09:54:00,
2013-07-02 05:59:00,62.6,61.7,30.08,North,360,3.0,10.0,97,0.00,RA,RA,0.37,0.0,WeatherDisplay:10.37,2013-07-02 09:59:00,
2013-07-02 06:04:00,62.6,61.7,30.07,North,360,2.0,7.0,97,0.00,RA,RA,0.37,0.0,WeatherDisplay:10.37,2013-07-02 10:04:00,
2013-07-02 06:09:00,62.7,61.8,30.08,North,360,0.0,4.0,97,0.00,RA,RA,0.37,0.0,WeatherDisplay:10.37,2013-07-02 10:09:00,
2013-07-02 06:19:00,62.7,61.8,30.08,North,360,0.0,2.0,97,0.02,RA,RA,0.42,0.0,WeatherDisplay:10.37,2013-07-02 10:19:00,
2013-07-02 06:24:00,62.7,61.8,30.08,North,360,1.0,4.0,97,0.02,RA,RA,0.44,0.0,WeatherDisplay:10.37,2013-07-02 10:24:00,
2013-07-02 06:34:00,62.6,61.8,30.08,North,360,0.0,10.0,97,0.00,RA,RA,0.50,0.0,WeatherDisplay:10.37,2013-07-02 10:34:00,
2013-07-02 06:39:00,62.7,61.8,30.08,North,360,1.0,5.0,97,0.01,RA,RA,0.51,0.0,WeatherDisplay:10.37,2013-07-02 10:39:00,
2013-07-02 06:49:00,62.7,61.8,30.09,North,360,5.0,7.0,97,0.00,RA,RA,0.51,5.0,WeatherDisplay:10.37,2013-07-02 10:49:00,
2013-07-02 06:54:00,62.7,61.8,30.09,North,360,5.0,7.0,97,0.00,RA,RA,0.51,7.0,WeatherDisplay:10.37,2013-07-02 10:54:00,
2013-07-02 06:59:00,62.8,61.9,30.09,North,360,2.0,5.0,97,0.00,RA,RA,0.51,5.0,WeatherDisplay:10.37,2013-07-02 10:59:00,
2013-07-02 07:09:00,63.0,62.1,30.09,North,360,0.0,5.0,97,0.00,RA,RA,0.51,9.0,WeatherDisplay:10.37,2013-07-02 11:09:00,
2013-07-02 07:14:00,63.0,62.2,30.09,North,360,2.0,6.0,97,0.00,RA,RA,0.51,16.0,WeatherDisplay:10.37,2013-07-02 11:14:00,
2013-07-02 07:24:00,63.1,62.3,30.10,North,360,0.0,5.0,97,0.02,RA,RA,0.53,14.0,WeatherDisplay:10.37,2013-07-02 11:24:00,
2013-07-02 07:29:00,63.2,62.3,30.10,North,360,0.0,6.0,97,0.04,RA,RA,0.57,39.0,WeatherDisplay:10.37,2013-07-02 11:29:00,
2013-07-02 07:34:00,63.3,62.4,30.10,North,360,0.0,5.0,97,0.02,RA,RA,0.59,21.0,WeatherDisplay:10.37,2013-07-02 11:34:00,
2013-07-02 07:39:00,63.4,62.5,30.10,North,360,0.0,0.0,97,0.00,RA,RA,0.59,14.0,WeatherDisplay:10.37,2013-07-02 11:39:00,
2013-07-02 07:44:00,63.4,62.5,30.10,North,360,5.0,9.0,97,0.00,RA,RA,0.59,25.0,WeatherDisplay:10.37,2013-07-02 11:44:00,
2013-07-02 07:54:00,63.6,62.7,30.10,North,360,1.0,6.0,97,0.00,RA,RA,0.59,35.0,WeatherDisplay:10.37,2013-07-02 11:54:00,
2013-07-02 07:59:00,63.7,62.8,30.10,North,360,0.0,6.0,97,0.00,RA,RA,0.59,62.0,WeatherDisplay:10.37,2013-07-02 11:59:00,
2013-07-02 08:09:00,63.9,63.0,30.10,North,360,1.0,6.0,97,0.00,RA,RA,0.59,56.0,WeatherDisplay:10.37,2013-07-02 12:09:00,
2013-07-02 08:14:00,64.0,63.1,30.11,North,360,1.0,8.0,97,0.00,RA,RA,0.59,28.0,WeatherDisplay:10.37,2013-07-02 12:14:00,
2013-07-02 08:24:00,64.1,63.2,30.11,North,360,5.0,10.0,97,0.00,RA,RA,0.59,74.0,WeatherDisplay:10.37,2013-07-02 12:24:00,
2013-07-02 08:29:00,64.2,63.3,30.11,North,360,0.0,3.0,97,0.00,RA,RA,0.59,109.0,WeatherDisplay:10.37,2013-07-02 12:29:00,
2013-07-02 08:34:00,64.3,63.4,30.11,North,360,1.0,12.0,97,0.00,RA,RA,0.59,118.0,WeatherDisplay:10.37,2013-07-02 12:34:00,
2013-07-02 08:39:00,64.3,63.4,30.11,North,360,5.0,9.0,97,0.00,RA,RA,0.59,120.0,WeatherDisplay:10.37,2013-07-02 12:39:00,
2013-07-02 08:49:00,64.3,63.4,30.11,North,360,0.0,7.0,97,0.01,RA,RA,0.60,81.0,WeatherDisplay:10.37,2013-07-02 12:49:00,
2013-07-02 08:54:00,64.4,63.5,30.11,North,360,8.0,12.0,97,0.01,RA,RA,0.61,77.0,WeatherDisplay:10.37,2013-07-02 12:54:00,
2013-07-02 09:04:00,64.4,63.5,30.11,North,360,1.0,5.0,97,0.01,RA,RA,0.63,47.0,WeatherDisplay:10.37,2013-07-02 13:04:00,
2013-07-02 09:14:00,64.5,63.6,30.12,North,360,8.0,12.0,97,0.00,RA,RA,0.64,195.0,WeatherDisplay:10.37,2013-07-02 13:14:00,
2013-07-02 09:19:00,64.6,63.8,30.12,North,360,9.0,14.0,97,0.00,RA,RA,0.64,345.0,WeatherDisplay:10.37,2013-07-02 13:19:00,
2013-07-02 09:29:00,64.9,64.0,30.12,North,360,1.0,12.0,97,0.00,RA,RA,0.64,79.0,WeatherDisplay:10.37,2013-07-02 13:29:00,
2013-07-02 09:39:00,64.8,63.6,30.12,North,360,6.0,10.0,96,0.03,RA,RA,0.67,21.0,WeatherDisplay:10.37,2013-07-02 13:39:00,
2013-07-02 09:44:00,64.8,63.6,30.13,North,360,2.0,5.0,96,0.10,RA,RA,0.77,23.0,WeatherDisplay:10.37,2013-07-02 13:44:00,
2013-07-02 09:49:00,64.5,63.3,30.12,North,360,7.0,12.0,96,0.11,RA,RA,0.88,58.0,WeatherDisplay:10.37,2013-07-02 13:49:00,
2013-07-02 09:54:00,64.5,63.3,30.12,North,360,8.0,13.0,96,0.05,RA,RA,0.93,44.0,WeatherDisplay:10.37,2013-07-02 13:54:00,
2013-07-02 09:59:00,64.3,63.1,30.13,North,360,1.0,12.0,96,0.04,RA,RA,0.97,19.0,WeatherDisplay:10.37,2013-07-02 13:59:00,
2013-07-02 10:04:00,64.1,62.9,30.13,North,360,2.0,7.0,96,0.08,RA,RA,1.05,37.0,WeatherDisplay:10.37,2013-07-02 14:04:00,
2013-07-02 10:09:00,63.9,62.7,30.13,North,360,0.0,5.0,96,0.08,RA,RA,1.13,26.0,WeatherDisplay:10.37,2013-07-02 14:09:00,
2013-07-02 10:14:00,63.6,62.5,30.14,North,360,5.0,12.0,96,0.02,RA,RA,1.15,37.0,WeatherDisplay:10.37,2013-07-02 14:14:00,
2013-07-02 10:19:00,63.6,62.4,30.14,North,360,1.0,14.0,96,0.00,RA,RA,1.15,185.0,WeatherDisplay:10.37,2013-07-02 14:19:00,
2013-07-02 10:24:00,63.7,62.6,30.14,North,360,1.0,7.0,96,0.00,RA,RA,1.15,241.0,WeatherDisplay:10.37,2013-07-02 14:24:00,
2013-07-02 10:29:00,64.0,63.1,30.14,North,360,1.0,10.0,97,0.00,RA,RA,1.15,390.0,WeatherDisplay:10.37,2013-07-02 14:29:00,
2013-07-02 10:39:00,64.8,63.9,30.14,North,360,7.0,13.0,97,0.00,RA,RA,1.15,343.0,WeatherDisplay:10.37,2013-07-02 14:39:00,
2013-07-02 10:44:00,65.4,64.5,30.14,North,360,6.0,14.0,97,0.00,RA,RA,1.15,919.0,WeatherDisplay:10.37,2013-07-02 14:44:00,
2013-07-02 10:54:00,67.0,66.1,30.14,North,360,5.0,9.0,97,0.00,RA,RA,1.15,424.0,WeatherDisplay:10.37,2013-07-02 14:54:00,
2013-07-02 10:59:00,67.0,66.1,30.14,North,360,6.0,17.0,97,0.00,RA,RA,1.15,417.0,WeatherDisplay:10.37,2013-07-02 14:59:00,
2013-07-02 11:04:00,67.0,65.8,30.14,North,360,7.0,14.0,96,0.00,RA,RA,1.15,411.0,WeatherDisplay:10.37,2013-07-02 15:04:00,
2013-07-02 11:09:00,67.1,65.7,30.14,North,360,3.0,12.0,95,0.00,RA,RA,1.15,911.0,WeatherDisplay:10.37,2013-07-02 15:09:00,
2013-07-02 11:14:00,67.8,66.6,30.14,North,360,1.0,9.0,96,0.00,RA,RA,1.15,501.0,WeatherDisplay:10.37,2013-07-02 15:14:00,
2013-07-02 11:24:00,68.3,65.9,30.14,North,360,5.0,9.0,92,0.00,RA,RA,1.15,933.0,WeatherDisplay:10.37,2013-07-02 15:24:00,
2013-07-02 11:29:00,68.2,66.1,30.13,North,360,3.0,9.0,93,0.00,RA,RA,1.15,921.0,WeatherDisplay:10.37,2013-07-02 15:29:00,
2013-07-02 11:34:00,68.6,66.5,30.13,North,360,5.0,12.0,93,0.00,RA,RA,1.15,882.0,WeatherDisplay:10.37,2013-07-02 15:34:00,
2013-07-02 11:39:00,68.7,65.3,30.13,North,360,5.0,14.0,89,0.00,RA,RA,1.15,946.0,WeatherDisplay:10.37,2013-07-02 15:39:00,
2013-07-02 11:49:00,69.4,66.6,30.13,North,360,0.0,9.0,91,0.00,RA,RA,1.15,213.0,WeatherDisplay:10.37,2013-07-02 15:49:00,
2013-07-02 11:59:00,68.8,65.4,30.13,North,360,3.0,12.0,89,0.00,RA,RA,1.15,330.0,WeatherDisplay:10.37,2013-07-02 15:59:00,
2013-07-02 12:04:00,68.6,64.9,30.13,North,360,3.0,13.0,88,0.00,RA,RA,1.15,984.0,WeatherDisplay:10.37,2013-07-02 16:04:00,
2013-07-02 12:09:00,69.3,66.2,30.13,North,360,3.0,9.0,90,0.00,RA,RA,1.15,974.0,WeatherDisplay:10.37,2013-07-02 16:09:00,
2013-07-02 12:19:00,69.9,66.2,30.13,North,360,0.0,15.0,88,0.00,RA,RA,1.15,401.0,WeatherDisplay:10.37,2013-07-02 16:19:00,
2013-07-02 12:29:00,70.1,65.8,30.13,North,360,2.0,16.0,86,0.00,RA,RA,1.15,1129.0,WeatherDisplay:10.37,2013-07-02 16:29:00,
2013-07-02 12:39:00,70.7,66.3,30.13,North,360,7.0,20.0,86,0.00,RA,RA,1.15,1037.0,WeatherDisplay:10.37,2013-07-02 16:39:00,
2013-07-02 12:44:00,71.3,65.9,30.13,North,360,8.0,18.0,83,0.00,RA,RA,1.15,1169.0,WeatherDisplay:10.37,2013-07-02 16:44:00,
2013-07-02 12:49:00,71.7,65.9,30.13,North,360,5.0,15.0,82,0.00,RA,RA,1.15,1127.0,WeatherDisplay:10.37,2013-07-02 16:49:00,
2013-07-02 12:59:00,72.6,67.1,30.13,North,360,5.0,16.0,83,0.00,RA,RA,1.15,1232.0,WeatherDisplay:10.37,2013-07-02 16:59:00,
2013-07-02 13:09:00,71.9,66.8,30.13,North,360,7.0,14.0,84,0.00,RA,RA,1.15,1188.0,WeatherDisplay:10.37,2013-07-02 17:09:00,
2013-07-02 13:14:00,72.2,66.4,30.13,North,360,8.0,12.0,82,0.00,RA,RA,1.15,1113.0,WeatherDisplay:10.37,2013-07-02 17:14:00,
2013-07-02 13:19:00,72.8,68.0,30.13,North,360,8.0,13.0,85,0.00,RA,RA,1.15,1143.0,WeatherDisplay:10.37,2013-07-02 17:19:00,
2013-07-02 13:24:00,72.9,66.7,30.13,North,360,6.0,15.0,81,0.00,RA,RA,1.15,1113.0,WeatherDisplay:10.37,2013-07-02 17:24:00,
2013-07-02 13:29:00,73.3,67.8,30.13,North,360,3.0,12.0,83,0.00,RA,RA,1.15,427.0,WeatherDisplay:10.37,2013-07-02 17:29:00,
2013-07-02 13:34:00,73.9,68.8,30.13,North,360,1.0,7.0,84,0.00,RA,RA,1.15,1158.0,WeatherDisplay:10.37,2013-07-02 17:34:00,
2013-07-02 13:39:00,74.1,67.5,30.13,North,360,6.0,13.0,80,0.00,RA,RA,1.15,497.0,WeatherDisplay:10.37,2013-07-02 17:39:00,
2013-07-02 13:44:00,74.1,67.9,30.13,North,360,3.0,13.0,81,0.00,RA,RA,1.15,1194.0,WeatherDisplay:10.37,2013-07-02 17:44:00,
2013-07-02 13:49:00,74.0,67.4,30.12,North,360,1.0,12.0,80,0.00,RA,RA,1.15,1280.0,WeatherDisplay:10.37,2013-07-02 17:49:00,
2013-07-02 13:59:00,74.2,66.6,30.13,North,360,8.0,15.0,77,0.00,RA,RA,1.15,1164.0,WeatherDisplay:10.37,2013-07-02 17:59:00,
2013-07-02 14:09:00,73.4,66.1,30.13,North,360,5.0,13.0,78,0.00,RA,RA,1.15,323.0,WeatherDisplay:10.37,2013-07-02 18:09:00,
2013-07-02 14:19:00,73.0,66.8,30.13,North,360,8.0,15.0,81,0.00,RA,RA,1.15,329.0,WeatherDisplay:10.37,2013-07-02 18:19:00,
2013-07-02 14:24:00,72.9,66.7,30.13,North,360,6.0,12.0,81,0.00,RA,RA,1.15,410.0,WeatherDisplay:10.37,2013-07-02 18:24:00,
2013-07-02 14:29:00,73.2,66.3,30.13,North,360,10.0,17.0,79,0.00,RA,RA,1.15,292.0,WeatherDisplay:10.37,2013-07-02 18:29:00,
2013-07-02 14:34:00,73.1,66.6,30.12,North,360,1.0,13.0,80,0.00,RA,RA,1.15,1183.0,WeatherDisplay:10.37,2013-07-02 18:34:00,
2013-07-02 14:39:00,73.3,66.8,30.12,North,360,2.0,9.0,80,0.00,RA,RA,1.15,1072.0,WeatherDisplay:10.37,2013-07-02 18:39:00,
2013-07-02 14:44:00,73.8,66.5,30.12,North,360,7.0,12.0,78,0.00,RA,RA,1.15,1072.0,WeatherDisplay:10.37,2013-07-02 18:44:00,
2013-07-02 14:54:00,73.7,65.6,30.13,North,360,6.0,12.0,76,0.00,RA,RA,1.15,237.0,WeatherDisplay:10.37,2013-07-02 18:54:00,
2013-07-02 14:59:00,73.0,66.5,30.13,North,360,5.0,12.0,80,0.00,RA,RA,1.15,281.0,WeatherDisplay:10.37,2013-07-02 18:59:00,
2013-07-02 15:04:00,72.7,65.8,30.13,North,360,6.0,12.0,79,0.00,RA,RA,1.15,304.0,WeatherDisplay:10.37,2013-07-02 19:04:00,
2013-07-02 15:09:00,72.3,66.1,30.13,North,360,6.0,12.0,81,0.00,RA,RA,1.15,773.0,WeatherDisplay:10.37,2013-07-02 19:09:00,
2013-07-02 15:14:00,72.9,65.2,30.13,North,360,3.0,10.0,77,0.00,RA,RA,1.15,1025.0,WeatherDisplay:10.37,2013-07-02 19:14:00,
2013-07-02 15:19:00,73.1,66.2,30.13,North,360,5.0,13.0,79,0.00,RA,RA,1.15,234.0,WeatherDisplay:10.37,2013-07-02 19:19:00,
2013-07-02 15:29:00,72.4,65.9,30.13,North,360,5.0,13.0,80,0.00,RA,RA,1.15,271.0,WeatherDisplay:10.37,2013-07-02 19:29:00,
2013-07-02 15:34:00,72.2,66.0,30.12,North,360,5.0,12.0,81,0.00,RA,RA,1.15,404.0,WeatherDisplay:10.37,2013-07-02 19:34:00,
2013-07-02 15:44:00,72.8,66.6,30.13,North,360,6.0,12.0,81,0.00,RA,RA,1.15,334.0,WeatherDisplay:10.37,2013-07-02 19:44:00,
2013-07-02 15:54:00,72.1,66.3,30.13,North,360,7.0,15.0,82,0.00,RA,RA,1.15,274.0,WeatherDisplay:10.37,2013-07-02 19:54:00,
2013-07-02 15:59:00,71.8,65.3,30.12,North,360,8.0,15.0,80,0.00,RA,RA,1.15,390.0,WeatherDisplay:10.37,2013-07-02 19:59:00,
2013-07-02 16:04:00,71.8,65.3,30.12,North,360,7.0,13.0,80,0.00,RA,RA,1.15,1039.0,WeatherDisplay:10.37,2013-07-02 20:04:00,
2013-07-02 16:09:00,72.5,66.7,30.12,North,360,5.0,12.0,82,0.00,RA,RA,1.15,476.0,WeatherDisplay:10.37,2013-07-02 20:09:00,
2013-07-02 16:14:00,72.9,67.5,30.13,North,360,3.0,10.0,83,0.00,RA,RA,1.15,323.0,WeatherDisplay:10.37,2013-07-02 20:14:00,
2013-07-02 16:19:00,72.7,66.2,30.13,North,360,5.0,12.0,80,0.00,RA,RA,1.15,302.0,WeatherDisplay:10.37,2013-07-02 20:19:00,
2013-07-02 16:24:00,71.9,65.7,30.14,North,360,8.0,13.0,81,0.00,RA,RA,1.15,272.0,WeatherDisplay:10.37,2013-07-02 20:24:00,
2013-07-02 16:34:00,70.6,64.9,30.13,North,360,8.0,16.0,82,0.00,RA,RA,1.15,860.0,WeatherDisplay:10.37,2013-07-02 20:34:00,
2013-07-02 16:44:00,71.1,64.6,30.13,North,360,3.0,12.0,80,0.00,RA,RA,1.15,686.0,WeatherDisplay:10.37,2013-07-02 20:44:00,
2013-07-02 16:49:00,71.6,65.5,30.13,North,360,0.0,5.0,81,0.00,RA,RA,1.15,675.0,WeatherDisplay:10.37,2013-07-02 20:49:00,
2013-07-02 16:54:00,72.5,66.7,30.13,North,360,6.0,9.0,82,0.00,RA,RA,1.15,675.0,WeatherDisplay:10.37,2013-07-02 20:54:00,
2013-07-02 16:59:00,72.8,66.6,30.13,North,360,3.0,15.0,81,0.00,RA,RA,1.15,598.0,WeatherDisplay:10.37,2013-07-02 20:59:00,
2013-07-02 17:09:00,73.1,66.9,30.13,North,360,5.0,15.0,81,0.00,RA,RA,1.15,151.0,WeatherDisplay:10.37,2013-07-02 21:09:00,
2013-07-02 17:14:00,73.2,67.0,30.13,North,360,7.0,14.0,81,0.00,RA,RA,1.15,97.0,WeatherDisplay:10.37,2013-07-02 21:14:00,
2013-07-02 17:19:00,73.4,67.6,30.13,North,360,8.0,13.0,82,0.00,RA,RA,1.15,100.0,WeatherDisplay:10.37,2013-07-02 21:19:00,
2013-07-02 17:24:00,73.4,67.6,30.13,North,360,9.0,16.0,82,0.00,RA,RA,1.15,107.0,WeatherDisplay:10.37,2013-07-02 21:24:00,
2013-07-02 17:29:00,73.2,67.4,30.13,North,360,2.0,16.0,82,0.00,RA,RA,1.15,125.0,WeatherDisplay:10.37,2013-07-02 21:29:00,
2013-07-02 17:39:00,73.5,66.9,30.13,North,360,5.0,12.0,80,0.00,RA,RA,1.15,153.0,WeatherDisplay:10.37,2013-07-02 21:39:00,
2013-07-02 17:49:00,73.1,66.9,30.13,North,360,6.0,15.0,81,0.00,RA,RA,1.15,107.0,WeatherDisplay:10.37,2013-07-02 21:49:00,
2013-07-02 17:54:00,73.4,67.5,30.14,North,360,1.0,7.0,82,0.00,RA,RA,1.15,97.0,WeatherDisplay:10.37,2013-07-02 21:54:00,
2013-07-02 17:59:00,73.1,67.0,30.13,North,360,3.0,8.0,81,0.00,RA,RA,1.15,97.0,WeatherDisplay:10.37,2013-07-02 21:59:00,
2013-07-02 18:04:00,72.9,67.4,30.13,North,360,2.0,8.0,83,0.00,RA,RA,1.15,97.0,WeatherDisplay:10.37,2013-07-02 22:04:00,
2013-07-02 18:09:00,72.8,67.0,30.13,North,360,0.0,10.0,82,0.00,RA,RA,1.15,142.0,WeatherDisplay:10.37,2013-07-02 22:09:00,
2013-07-02 18:19:00,73.1,68.0,30.13,North,360,2.0,10.0,84,0.00,RA,RA,1.15,158.0,WeatherDisplay:10.37,2013-07-02 22:19:00,
2013-07-02 18:29:00,72.4,66.2,30.13,North,360,7.0,12.0,81,0.00,RA,RA,1.15,248.0,WeatherDisplay:10.37,2013-07-02 22:29:00,
2013-07-02 18:34:00,72.3,66.9,30.13,North,360,0.0,7.0,83,0.00,RA,RA,1.15,336.0,WeatherDisplay:10.37,2013-07-02 22:34:00,
2013-07-02 18:39:00,72.5,66.7,30.14,North,360,2.0,6.0,82,0.00,RA,RA,1.15,287.0,WeatherDisplay:10.37,2013-07-02 22:39:00,
2013-07-02 18:44:00,72.5,66.7,30.14,North,360,5.0,10.0,82,0.00,RA,RA,1.15,308.0,WeatherDisplay:10.37,2013-07-02 22:44:00,
2013-07-02 18:49:00,72.6,66.1,30.14,North,360,2.0,12.0,80,0.00,RA,RA,1.15,139.0,WeatherDisplay:10.37,2013-07-02 22:49:00,
2013-07-02 18:59:00,72.4,65.9,30.14,North,360,1.0,6.0,80,0.00,RA,RA,1.15,255.0,WeatherDisplay:10.37,2013-07-02 22:59:00,
2013-07-02 19:04:00,72.1,66.3,30.14,North,360,3.0,8.0,82,0.00,RA,RA,1.15,257.0,WeatherDisplay:10.37,2013-07-02 23:04:00,
2013-07-02 19:09:00,72.0,66.2,30.14,North,360,3.0,12.0,82,0.00,RA,RA,1.15,98.0,WeatherDisplay:10.37,2013-07-02 23:09:00,
2013-07-02 19:19:00,71.6,67.2,30.14,North,360,2.0,12.0,86,0.00,RA,RA,1.15,72.0,WeatherDisplay:10.37,2013-07-02 23:19:00,
2013-07-02 19:24:00,71.3,66.9,30.14,North,360,3.0,12.0,86,0.00,RA,RA,1.15,65.0,WeatherDisplay:10.37,2013-07-02 23:24:00,
2013-07-02 19:34:00,70.6,66.5,30.15,North,360,3.0,10.0,87,0.00,RA,RA,1.15,51.0,WeatherDisplay:10.37,2013-07-02 23:34:00,
2013-07-02 19:44:00,70.1,66.4,30.16,North,360,1.0,6.0,88,0.00,RA,RA,1.15,58.0,WeatherDisplay:10.37,2013-07-02 23:44:00,
2013-07-02 19:54:00,69.6,66.2,30.16,North,360,5.0,7.0,89,0.00,RA,RA,1.15,49.0,WeatherDisplay:10.37,2013-07-02 23:54:00,
2013-07-02 19:59:00,69.4,66.3,30.16,North,360,2.0,12.0,90,0.00,RA,RA,1.15,46.0,WeatherDisplay:10.37,2013-07-02 23:59:00,
2013-07-02 20:04:00,69.3,66.2,30.16,North,360,0.0,4.0,90,0.00,RA,RA,1.15,42.0,WeatherDisplay:10.37,2013-07-03 00:04:00,
2013-07-02 20:09:00,69.1,66.4,30.16,North,360,0.0,4.0,91,0.00,RA,RA,1.15,32.0,WeatherDisplay:10.37,2013-07-03 00:09:00,
2013-07-02 20:19:00,68.9,66.2,30.17,North,360,3.0,10.0,91,0.00,RA,RA,1.15,19.0,WeatherDisplay:10.37,2013-07-03 00:19:00,
2013-07-02 20:29:00,68.8,66.3,30.17,North,360,1.0,4.0,92,0.00,RA,RA,1.15,16.0,WeatherDisplay:10.37,2013-07-03 00:29:00,
2013-07-02 20:34:00,68.6,66.2,30.17,North,360,3.0,10.0,92,0.00,RA,RA,1.15,14.0,WeatherDisplay:10.37,2013-07-03 00:34:00,
2013-07-02 20:39:00,68.5,66.1,30.17,North,360,3.0,9.0,92,0.00,RA,RA,1.15,12.0,WeatherDisplay:10.37,2013-07-03 00:39:00,
2013-07-02 20:44:00,68.4,66.0,30.17,North,360,6.0,10.0,92,0.00,RA,RA,1.15,11.0,WeatherDisplay:10.37,2013-07-03 00:44:00,
2013-07-02 20:49:00,68.2,65.8,30.17,North,360,3.0,13.0,92,0.00,RA,RA,1.15,9.0,WeatherDisplay:10.37,2013-07-03 00:49:00,
2013-07-02 20:54:00,68.1,65.7,30.17,North,360,2.0,14.0,92,0.00,RA,RA,1.15,5.0,WeatherDisplay:10.37,2013-07-03 00:54:00,
2013-07-02 20:59:00,67.9,65.8,30.17,North,360,2.0,12.0,93,0.00,RA,RA,1.15,0.0,WeatherDisplay:10.37,2013-07-03 00:59:00,
2013-07-02 21:04:00,67.8,65.7,30.17,North,360,5.0,14.0,93,0.00,RA,RA,1.15,0.0,WeatherDisplay:10.37,2013-07-03 01:04:00,
2013-07-02 21:09:00,67.6,65.5,30.17,North,360,1.0,12.0,93,0.00,RA,RA,1.15,0.0,WeatherDisplay:10.37,2013-07-03 01:09:00,
2013-07-02 21:14:00,67.6,65.5,30.18,North,360,1.0,6.0,93,0.00,RA,RA,1.15,0.0,WeatherDisplay:10.37,2013-07-03 01:14:00,
2013-07-02 21:19:00,67.5,65.4,30.18,North,360,1.0,6.0,93,0.00,RA,RA,1.15,0.0,WeatherDisplay:10.37,2013-07-03 01:19:00,
2013-07-02 21:24:00,67.5,65.4,30.18,North,360,2.0,10.0,93,0.00,RA,RA,1.15,0.0,WeatherDisplay:10.37,2013-07-03 01:24:00,
2013-07-02 21:29:00,67.5,65.7,30.18,North,360,5.0,12.0,94,0.00,RA,RA,1.15,0.0,WeatherDisplay:10.37,2013-07-03 01:29:00,
2013-07-02 21:34:00,67.4,65.6,30.18,North,360,2.0,14.0,94,0.00,RA,RA,1.15,0.0,WeatherDisplay:10.37,2013-07-03 01:34:00,
2013-07-02 21:39:00,67.4,65.3,30.19,North,360,3.0,10.0,93,0.00,RA,RA,1.15,0.0,WeatherDisplay:10.37,2013-07-03 01:39:00,
2013-07-02 21:44:00,67.3,65.5,30.19,North,360,3.0,9.0,94,0.00,RA,RA,1.15,0.0,WeatherDisplay:10.37,2013-07-03 01:44:00,
2013-07-02 21:49:00,67.2,65.4,30.19,North,360,3.0,10.0,94,0.00,RA,RA,1.15,0.0,WeatherDisplay:10.37,2013-07-03 01:49:00,
2013-07-02 21:54:00,67.2,65.4,30.19,North,360,5.0,12.0,94,0.00,RA,RA,1.15,0.0,WeatherDisplay:10.37,2013-07-03 01:54:00,
2013-07-02 21:59:00,67.2,65.4,30.19,North,360,2.0,9.0,94,0.00,RA,RA,1.15,0.0,WeatherDisplay:10.37,2013-07-03 01:59:00,
2013-07-02 22:09:00,67.1,65.3,30.19,North,360,2.0,7.0,94,0.00,RA,RA,1.15,0.0,WeatherDisplay:10.37,2013-07-03 02:09:00,
2013-07-02 22:24:00,66.8,65.1,30.19,North,360,3.0,10.0,94,0.00,RA,RA,1.15,0.0,WeatherDisplay:10.37,2013-07-03 02:24:00,
2013-07-02 22:34:00,66.7,64.9,30.20,North,360,0.0,5.0,94,0.00,RA,RA,1.15,0.0,WeatherDisplay:10.37,2013-07-03 02:34:00,
2013-07-02 22:44:00,66.6,65.2,30.21,North,360,1.0,7.0,95,0.00,RA,RA,1.15,0.0,WeatherDisplay:10.37,2013-07-03 02:44:00,
2013-07-02 22:54:00,66.6,64.8,30.21,North,360,2.0,10.0,94,0.00,RA,RA,1.15,0.0,WeatherDisplay:10.37,2013-07-03 02:54:00,
2013-07-02 22:59:00,66.6,65.1,30.21,North,360,0.0,4.0,95,0.00,RA,RA,1.15,0.0,WeatherDisplay:10.37,2013-07-03 02:59:00,
2013-07-02 23:04:00,66.6,64.8,30.21,North,360,0.0,3.0,94,0.00,RA,RA,1.15,0.0,WeatherDisplay:10.37,2013-07-03 03:04:00,
2013-07-02 23:09:00,66.6,64.8,30.21,North,360,0.0,0.0,94,0.00,RA,RA,1.15,0.0,WeatherDisplay:10.37,2013-07-03 03:09:00,
2013-07-02 23:19:00,66.5,64.7,30.22,North,360,1.0,5.0,94,0.00,RA,RA,1.15,0.0,WeatherDisplay:10.37,2013-07-03 03:19:00,
2013-07-02 23:29:00,66.5,64.7,30.22,North,360,0.0,9.0,94,0.00,RA,RA,1.15,0.0,WeatherDisplay:10.37,2013-07-03 03:29:00,
2013-07-02 23:34:00,66.4,64.6,30.22,North,360,5.0,8.0,94,0.00,RA,RA,1.15,0.0,WeatherDisplay:10.37,2013-07-03 03:34:00,
2013-07-02 23:44:00,66.4,64.6,30.22,North,360,3.0,9.0,94,0.00,RA,RA,1.15,0.0,WeatherDisplay:10.37,2013-07-03 03:44:00,
2013-07-02 23:49:00,66.3,64.5,30.21,North,360,3.0,12.0,94,0.00,RA,RA,1.15,0.0,WeatherDisplay:10.37,2013-07-03 03:49:00,